Location: Bazugues
(43.4465°N, 0.3432°E)
Time: 19:33:53
(UTC+00:00)

Cosmos 1470 Rocket - Pass Details

Date: 12 January 2026
Orbit: 597 x 626 km, 82.5° (Epoch: 13 February)

Event Time Altitude Azimuth Distance (km) Brightness Sun altitude
Rises 17:40:08 0° 358° (N) 2,856 6.8 -10.0°
Reaches altitude 10° 17:42:27 10° 6° (N) 1,951 5.9 -10.4°
Maximum altitude 17:46:33 41° 77° (ENE) 875 3.9 -11.1°
Drops below altitude 10° 17:50:38 10° 149° (SSE) 1,949 6.0 -11.8°
Sets 17:52:56 0° 156° (SSE) 2,852 6.9 -12.2°
